Regional Weather Roundup
Issued by NWS

Home | Current Version | Previous Version | Text Only | Print | Product List | Glossary On
Versions: 1 2 3 4 5 6 7 8 9 10 11 12 13 14 15 16 17 18 19 20 21 22 23 24 25 26 27 28 29 30 31 32 33 34 35 36 37 38 39 40 41 42 43 44 45 46 47 48 49 50
000
ASUS43 KDTX 180010
RWRMI
MICHIGAN HOURLY REGIONAL WEATHER ROUNDUP
NATIONAL WEATHER SERVICE DETROIT/PONTIAC MI
800 PM EDT TUE OCT 17 2017

NOTE: "FAIR" INDICATES FEW OR NO CLOUDS BELOW 12,000 FEET WITH NO
SIGNIFICANT WEATHER AND/OR OBSTRUCTION TO VISIBILITY.

MIZ047>049-052>055-059>063-066>070-074>076-081>083-180100-
SOUTHEAST LOWER MICHIGAN

CITY           SKY/WX    TMP DP  RH WIND       PRES   REMARKS
ADRIAN         CLEAR     55  40  56 SW5       30.18R
6HR MIN TEMP:  54; 6HR MAX TEMP:  67;

ALMA           CLOUDY    59  41  52 SW3       30.12R
ANN ARBOR      CLEAR     58  41  53 S7        30.16R
BAD AXE        CLOUDY    60  45  57 W8        30.10R
6HR MIN TEMP:  60; 6HR MAX TEMP:  69;

CARO           PTCLDY    61  43  50 W8        30.11R
DETROIT CITY   CLEAR     62  40  44 SW10      30.15R
6HR MIN TEMP:  62; 6HR MAX TEMP:  68;

DETROIT        PTCLDY    59  41  51 S9        30.17R
6HR MIN TEMP:  59; 6HR MAX TEMP:  69;

FLINT          CLEAR     60  41  49 SW5       30.13R
6HR MIN TEMP:  60; 6HR MAX TEMP:  70;

GROSSE ILE     CLEAR     60  42  50 SW6       30.16R
6HR MIN TEMP:  60; 6HR MAX TEMP:  68;

HILLSDALE      CLEAR     55  37  50 S6        30.17R
HOWELL         CLEAR     60  41  50 SW5       30.15R
6HR MIN TEMP:  59; 6HR MAX TEMP:  69;


CITY           SKY/WX    TMP DP  RH WIND       PRES   REMARKS
JACKSON        CLEAR     59  41  51 S9        30.16R
6HR MIN TEMP:  58; 6HR MAX TEMP:  67;

LAMBERTVILLE   CLEAR     59  41  51 CALM      30.18R
6HR MIN TEMP:  59; 6HR MAX TEMP:  70;

LANSING        CLEAR     59  40  49 SW3       30.14R
6HR MIN TEMP:  59; 6HR MAX TEMP:  70;

LAPEER         FAIR      60  42  50 W3        30.13R
6HR MIN TEMP:  60; 6HR MAX TEMP:  69;

MASON          CLEAR     61  42  49 CALM      30.14R
MONROE         CLEAR     59  39  48 SW5       30.17R
6HR MIN TEMP:  59; 6HR MAX TEMP:  70;

MT. CLEMENS    MOCLDY    62  42  49 SW9       30.13R
6HR MIN TEMP:  61; 6HR MAX TEMP:  69;

PONTIAC        MOCLDY    62  42  47 SW6       30.14R
6HR MIN TEMP:  61; 6HR MAX TEMP:  68;

PORT HOPE        N/A     62  47  57 SW8       30.06R
6HR MIN TEMP:  62; 6HR MAX TEMP:  68;

PORT HURON     CLOUDY    63  41  45 SW3       30.12R
TRI CITIES     CLOUDY    61  47  59 SW9       30.12R
6HR MIN TEMP:  60; 6HR MAX TEMP:  71;

MIDLAND        FAIR      61  46  57 SW6       30.10R
6HR MIN TEMP:  61; 6HR MAX TEMP:  71;

TROY           CLEAR     62  41  45 SW5       30.17R
SAGINAW HB     CLOUDY    61  45  55 SW6       30.11R
$$
MIZ043>046-050>051-056>058-064>065-071>073-077>080-180100-
SOUTHWEST LOWER MICHIGAN

CITY           SKY/WX    TMP DP  RH WIND       PRES   REMARKS
BATTLE CREEK   CLEAR     56  43  61 S7        30.16R
6HR MIN TEMP:  56; 6HR MAX TEMP:  68;

BENTON HARBOR  CLEAR     61  41  47 S5        30.14R
6HR MIN TEMP:  61; 6HR MAX TEMP:  68;

BIG RAPIDS     PTCLDY    56  45  65 CALM      30.10R
6HR MIN TEMP:  56; 6HR MAX TEMP:  65;

COLDWATER      CLEAR     57  39  51 CALM      30.17R
6HR MIN TEMP:  57; 6HR MAX TEMP:  68;

FREMONT        FAIR      58  47  67 S5        30.09R
HOLLAND        CLEAR     63  44  50 SW15      30.12R
6HR MIN TEMP:  63; 6HR MAX TEMP:  66;

GRAND RAPIDS   PTCLDY    60  43  53 SW9       30.12R
6HR MIN TEMP:  60; 6HR MAX TEMP:  67;

IONIA          FAIR      58  40  51 SW6       30.12R
6HR MIN TEMP:  58; 6HR MAX TEMP:  70;

KALAMAZOO      CLEAR     59  40  49 S6        30.16R
6HR MIN TEMP:  57; 6HR MAX TEMP:  69;

LUDINGTON      PTCLDY    58  50  75 S5        30.06R
6HR MIN TEMP:  58; 6HR MAX TEMP:  62;

MARSHALL       CLEAR     59  40  50 S5        30.15R
6HR MIN TEMP:  59; 6HR MAX TEMP:  67;

MOUNT PLEASANT CLOUDY    61  45  55 SW6       30.10R
6HR MIN TEMP:  61; 6HR MAX TEMP:  70;

MUSKEGON       CLOUDY    62  51  67 S10       30.09R
6HR MIN TEMP:  62; 6HR MAX TEMP:  66;

SOUTH HAVEN    CLEAR     62  41  46 S5        30.14R
$$
MIZ016>042-180100-
NORTHERN LOWER MICHIGAN

CITY           SKY/WX    TMP DP  RH WIND       PRES   REMARKS
ALPENA         CLEAR     52  48  86 CALM      30.06R
6HR MIN TEMP:  52; 6HR MAX TEMP:  70;

BEAVER ISLAND  CLEAR     57  52  82 S7        30.03R
6HR MIN TEMP:  57; 6HR MAX TEMP:  62;

BELLAIRE       CLEAR     55  48  78 SW3       30.06R
6HR MIN TEMP:  54; 6HR MAX TEMP:  65;

CADILLAC       CLEAR     54  44  68 CALM      30.08R
CHARLEVOIX     CLEAR     53  49  86 CALM      30.07R
6HR MIN TEMP:  53; 6HR MAX TEMP:  62;

FRANKFORT      CLEAR     52  48  88 CALM      30.05R
GAYLORD        CLEAR     53  44  71 S6        30.06R
6HR MIN TEMP:  51; 6HR MAX TEMP:  65;

GRAYLING       CLEAR     56  45  65 CALM      30.08R
6HR MIN TEMP:  56; 6HR MAX TEMP:  66;

HARBOR SPRINGS CLEAR     52  51  95 W5        30.04R
HOUGHTON LAKE  CLEAR     56  46  69 SW3       30.09R
6HR MIN TEMP:  56; 6HR MAX TEMP:  66;

MANISTEE       CLEAR     49  47  93 CALM      30.05S
OSCODA         CLEAR     54  47  76 SW9       30.05R
6HR MIN TEMP:  52; 6HR MAX TEMP:  71;

PELLSTON       CLEAR     53  49  86 CALM      30.05R
6HR MIN TEMP:  53; 6HR MAX TEMP:  63;

ROGERS CITY    CLEAR     50  45  81 SW3       30.05R
TRAVERSE CITY  MOCLDY    58  46  64 CALM      30.04R
6HR MIN TEMP:  58; 6HR MAX TEMP:  67;

$$
MIZ007>008-015-180100-
EASTERN UPPER MICHIGAN

CITY           SKY/WX    TMP DP  RH WIND       PRES   REMARKS
KINROSS        CLEAR     51  46  83 CALM      30.04R
6HR MIN TEMP:  50; 6HR MAX TEMP:  67;

MACKINAC ISLAN CLEAR     57  51  81 W8        30.04R
6HR MIN TEMP:  57; 6HR MAX TEMP:  60;

NEWBERRY       CLEAR     50  49  97 CALM      30.01R
6HR MIN TEMP:  50; 6HR MAX TEMP:  66;

S. S. MARIE    CLEAR     50  43  77 W3        30.03R
6HR MIN TEMP:  50; 6HR MAX TEMP:  64;

MUNISING         N/A     49  45  86 S6        29.99R
6HR MIN TEMP:  49; 6HR MAX TEMP:  63;

$$
MIZ004>006-011>014-085-180100-
CENTRAL UPPER MICHIGAN

CITY           SKY/WX    TMP DP  RH WIND       PRES   REMARKS
MANISTIQUE     CLEAR     55  49  81 S7        30.01R
6HR MIN TEMP:  55; 6HR MAX TEMP:  63;

ESCANABA       CLEAR     59  52  77 S12       29.99R
6HR MIN TEMP:  57; 6HR MAX TEMP:  63;

MENOMINEE      CLEAR     59  49  69 S5        30.01R
6HR MIN TEMP:  59; 6HR MAX TEMP:  69;

SAWYER-GWINN   CLEAR     55  45  67 E6        29.98R
$$
MIZ001>003-009>011-084-180100-
WESTERN UPPER MICHIGAN

CITY           SKY/WX    TMP DP  RH WIND       PRES   REMARKS
IRON MOUNTAIN  CLEAR     54  38  54 SE3       29.97R
6HR MIN TEMP:  53; 6HR MAX TEMP:  71;

HOUGHTON       CLEAR     55  42  61 E7        29.93R
6HR MIN TEMP:  55; 6HR MAX TEMP:  66;

COPPER HARBOR    N/A     53  45  74 SW3       29.93S
6HR MIN TEMP:  52; 6HR MAX TEMP:  61;

IRONWOOD       CLEAR     63  40  42 S6        29.93R
6HR MIN TEMP:  63; 6HR MAX TEMP:  70;

$$

ABBREVIATIONS USED IN REMARKS
   TC - TEMPERATURE IN CELSIUS
  WCI - WIND CHILL INDEX
   HX - HEAT INDEX
  VSB - VISIBILITY





USA.gov is the U.S. government's official web portal to all federal, state and local government web resources and services.